Weather History for KTQE - November, 2012

Change the Weather History Date:

Thursday, November 15, 2012

  Actual Average Record
Temperature  
Mean Temperature 46 °F -  
Max Temperature 59 °F 48 °F 74 °F (1948)
Min Temperature 30 °F 26 °F 8 °F (1955)
Degree Days  
Heating Degree Days 19    
Moisture  
Dew Point 31 °F    
Average Humidity 64    
Maximum Humidity 82    
Minimum Humidity 37    
Precipitation  
Precipitation 0.00 in - - ()
Sea Level Pressure  
Sea Level Pressure 30.31 in    
Wind  
Wind Speed 7 mph (NNW)    
Max Wind Speed 14 mph    
Max Gust Speed -    
Visibility 10 miles    
Events      
Averages and records for this station are not official NWS values.
T = Trace of Precipitation, MM = Missing Value Source: NWS Daily Summary

Daily Weather History Graph

Daily Weather History Graph

Search for Another Location

Airport or City:

Trip Planner

Search our weather history database for the weather conditions in past years. The results will help you decide how hot, cold, wet, or windy it might be!

Date:

Astronomy

Nov. 15, 2012 Rise Set
Actual Time 7:14 AM CST 5:03 PM CST
Civil Twilight 6:44 AM CST 5:33 PM CST
Nautical Twilight 6:11 AM CST 6:07 PM CST
Astronomical Twilight 5:38 AM CST 6:40 PM CST
Moon 9:12 AM CST (11/15) 6:55 PM CST (11/15)
Length of Visible Light 10h 48m
Length of Day
9h 49m
Waxing Crescent, 5% of the Moon is Illuminated
Nov 15
Waxing Crescent
Nov 20
First Quarter
Nov 28
Full
Dec 6
Last Quarter
Dec 13
New

Hourly Weather History & Observations

Time (CST) Temp. Windchill Dew Point Humidity Pressure Visibility Wind Dir Wind Speed Gust Speed Precip Events Conditions
12:54 AM 43.0 °F 38.2 °F 32.0 °F 65% 30.18 in 10.0 mi South 8.1 mph - N/A   Overcast
1:54 AM 43.0 °F 38.2 °F 32.0 °F 65% 30.17 in 10.0 mi South 8.1 mph - N/A   Overcast
2:54 AM 42.1 °F 38.4 °F 32.0 °F 67% 30.19 in 10.0 mi South 5.8 mph - N/A   Overcast
3:54 AM 41.0 °F 36.4 °F 32.0 °F 70% 30.18 in 10.0 mi South 6.9 mph - N/A   Mostly Cloudy
4:54 AM 37.9 °F 35.5 °F 30.9 °F 76% 30.19 in 10.0 mi SSW 3.5 mph - N/A   Partly Cloudy
5:54 AM 37.9 °F - 30.9 °F 76% 30.22 in 10.0 mi Calm Calm - N/A   Scattered Clouds
6:54 AM 36.0 °F 33.3 °F 30.9 °F 82% 30.25 in 9.0 mi NW 3.5 mph - N/A   Scattered Clouds
7:54 AM 37.9 °F - 32.0 °F 79% 30.27 in 7.0 mi Calm Calm - N/A   Overcast
8:54 AM 42.1 °F - 33.1 °F 70% 30.30 in 9.0 mi Calm Calm - N/A   Partly Cloudy
10:54 AM 52.0 °F - 34.0 °F 50% 30.32 in 10.0 mi North 8.1 mph - N/A   Clear
11:54 AM 55.0 °F - 36.0 °F 49% 30.32 in 10.0 mi North 10.4 mph - N/A   Clear
12:54 PM 57.9 °F - 34.0 °F 41% 30.30 in 10.0 mi North 13.8 mph - N/A   Clear
1:54 PM 59.0 °F - 33.1 °F 38% 30.30 in 10.0 mi North 13.8 mph - N/A   Clear
2:54 PM 57.9 °F - 32.0 °F 37% 30.30 in 10.0 mi North 12.7 mph - N/A   Clear
3:54 PM 55.9 °F - 33.1 °F 42% 30.32 in 10.0 mi North 12.7 mph - N/A   Clear
4:54 PM 51.1 °F - 33.1 °F 50% 30.35 in 10.0 mi North 9.2 mph - N/A   Clear
5:54 PM 42.1 °F 37.1 °F 30.9 °F 65% 30.38 in 10.0 mi NNW 8.1 mph - N/A   Clear
6:54 PM 39.9 °F 33.9 °F 30.0 °F 68% 30.40 in 10.0 mi NW 9.2 mph - N/A   Clear
7:54 PM 39.0 °F 32.3 °F 30.0 °F 70% 30.42 in 10.0 mi NNW 10.4 mph - N/A   Clear
8:54 PM 36.0 °F - 28.9 °F 76% 30.44 in 10.0 mi Calm Calm - N/A   Clear
9:54 PM 33.1 °F 24.9 °F 27.0 °F 78% 30.45 in 9.0 mi North 10.4 mph - N/A   Clear
10:54 PM 33.1 °F 24.9 °F 28.0 °F 82% 30.46 in 8.0 mi North 10.4 mph - N/A   Clear
11:54 PM 30.0 °F 22.4 °F 25.0 °F 82% 30.48 in 8.0 mi NNW 8.1 mph - N/A   Clear